Location: Cruquius
(52.3348°N, 4.6319°E)
Time: 19:03:55
(UTC+00:00)

Iridium 4 Rocket - Visible Passes

Search period start: 19 September 2021 00:00
Search period end: 29 September 2021 00:00
Orbit: 584 x 904 km, 86.9° (Epoch: 19 September)

Date Brightness Start Highest point End Pass type
(mag) Time Alt. Az. Time Alt. Az. Time Alt. Az.
19 Sep 3.9 20:36:59 10° N 20:40:21 42° NNE 20:40:21 42° NNE visible
19 Sep 5.6 22:17:51 10° NNW 22:20:07 18° WNW 22:20:07 18° WNW visible
20 Sep 4.4 19:54:04 10° NNE 19:57:05 25° ENE 19:57:05 25° ENE visible
20 Sep 4.7 21:33:50 10° NNW 21:36:51 32° NW 21:36:51 32° NW visible
21 Sep 5.1 19:11:59 10° NE 19:13:49 13° ENE 19:13:49 13° ENE visible
21 Sep 3.8 20:50:18 10° N 20:53:35 48° N 20:53:35 48° N visible
21 Sep 6.0 22:32:28 10° NW 22:33:21 11° WNW 22:33:21 11° WNW visible
22 Sep 4.0 20:07:06 10° N 20:10:19 35° NE 20:10:19 35° NE visible
22 Sep 5.3 21:47:32 10° NNW 21:50:05 22° WNW 21:50:05 22° WNW visible
23 Sep 4.6 19:24:23 10° NNE 19:27:04 19° ENE 19:27:04 19° ENE visible
23 Sep 4.3 21:03:43 10° NNW 21:06:50 39° NW 21:06:50 39° NW visible
24 Sep 3.6 20:20:18 10° N 20:23:36 47° NNE 20:23:36 47° NNE visible
24 Sep 5.8 22:01:38 10° NW 22:03:21 14° WNW 22:03:21 14° WNW visible
25 Sep 4.1 19:37:15 10° NNE 19:40:21 28° NE 19:40:21 28° NE visible
25 Sep 4.9 21:17:17 10° NNW 21:20:07 27° WNW 21:20:07 27° WNW visible
26 Sep 4.8 18:54:53 10° NNE 18:57:07 15° ENE 18:57:07 15° ENE visible
26 Sep 3.8 20:33:38 10° N 20:36:53 48° NNW 20:36:53 48° NNW visible
27 Sep 3.6 19:50:20 10° N 19:53:40 43° NE 19:53:40 43° NE visible
27 Sep 5.5 21:31:06 10° NNW 21:33:26 18° WNW 21:33:26 18° WNW visible
28 Sep 4.3 19:07:27 10° NNE 19:10:28 23° ENE 19:10:28 23° ENE visible
28 Sep 4.4 20:47:05 10° NNW 20:50:14 36° NW 20:50:14 36° NW visible
